QTR32N VOBL-OTHH

Flight info

Callsign QTR32N
Flight time N/A
Altitude 36000
Route GUNIM8C GUNIM N563 KATBI/N0488F380 N563 SODEX DCT UMIBU/N0489F340 P899 TOVOX
Aircraft B77W/H-SDE1E2E3FGHIJ2J3J4J5M1RWXY/LB1D1

Departure

Time 2026-04-27 14:26
Airport Kempegowda International Airport Bengaluru (VOBL)

Arrival

Time N/A
Airport Hamad International Airport (OTHH)
Time Latitude Longitude Altitude Speed Heading
2026-04-27 13:56 13.20086 77.71990 2959 ft 0 kts 236°
2026-04-27 14:09 13.20090 77.71995 2959 ft 2 kts 236°
2026-04-27 14:10 13.20098 77.72008 2958 ft 2 kts 236°
2026-04-27 14:10 13.20107 77.72021 2957 ft 2 kts 236°
2026-04-27 14:10 13.20115 77.72034 2956 ft 2 kts 236°
2026-04-27 14:10 13.20124 77.72047 2956 ft 2 kts 236°
2026-04-27 14:11 13.20129 77.72055 2955 ft 2 kts 233°
2026-04-27 14:11 13.20141 77.72064 2955 ft 2 kts 197°
2026-04-27 14:11 13.20155 77.72066 2955 ft 2 kts 168°
2026-04-27 14:11 13.20169 77.72060 2954 ft 2 kts 140°
2026-04-27 14:12 13.20178 77.72049 2954 ft 2 kts 111°
2026-04-27 14:12 13.20181 77.72038 2955 ft 0 kts 90°
2026-04-27 14:12 13.20181 77.72032 2955 ft 0 kts 89°
2026-04-27 14:14 13.20181 77.72034 2955 ft 0 kts 89°
2026-04-27 14:14 13.20181 77.72048 2954 ft 3 kts 89°
2026-04-27 14:15 13.20180 77.72103 2953 ft 9 kts 91°
2026-04-27 14:15 13.20178 77.72174 2952 ft 10 kts 91°
2026-04-27 14:15 13.20177 77.72251 2949 ft 11 kts 91°
2026-04-27 14:15 13.20176 77.72340 2946 ft 13 kts 91°
2026-04-27 14:16 13.20157 77.72429 2943 ft 12 kts 143°
2026-04-27 14:16 13.20081 77.72446 2945 ft 9 kts 180°
2026-04-27 14:16 13.20031 77.72444 2947 ft 6 kts 182°
2026-04-27 14:16 13.19975 77.72443 2950 ft 10 kts 180°
2026-04-27 14:17 13.19903 77.72443 2954 ft 12 kts 180°
2026-04-27 14:17 13.19807 77.72443 2958 ft 12 kts 181°
2026-04-27 14:17 13.19741 77.72441 2962 ft 6 kts 181°
2026-04-27 14:17 13.19674 77.72440 2965 ft 11 kts 181°
2026-04-27 14:18 13.19603 77.72438 2969 ft 10 kts 180°
2026-04-27 14:18 13.19508 77.72437 2974 ft 16 kts 180°
2026-04-27 14:18 13.19378 77.72437 2979 ft 18 kts 180°
2026-04-27 14:18 13.19265 77.72437 2982 ft 14 kts 181°
2026-04-27 14:19 13.19205 77.72388 2983 ft 11 kts 257°
2026-04-27 14:19 13.19198 77.72313 2983 ft 9 kts 267°
2026-04-27 14:19 13.19200 77.72227 2985 ft 16 kts 271°
2026-04-27 14:19 13.19199 77.72089 2989 ft 18 kts 268°
2026-04-27 14:20 13.19197 77.71975 2992 ft 13 kts 272°
2026-04-27 14:20 13.19201 77.71885 2994 ft 11 kts 272°
2026-04-27 14:20 13.19202 77.71791 2996 ft 13 kts 270°
2026-04-27 14:20 13.19204 77.71687 2996 ft 15 kts 271°
2026-04-27 14:21 13.19204 77.71580 2996 ft 15 kts 270°
2026-04-27 14:21 13.19205 77.71467 2995 ft 15 kts 271°
2026-04-27 14:21 13.19207 77.71354 2993 ft 15 kts 271°
2026-04-27 14:21 13.19208 77.71237 2989 ft 17 kts 270°
2026-04-27 14:22 13.19210 77.71104 2984 ft 19 kts 271°
2026-04-27 14:22 13.19212 77.70961 2978 ft 19 kts 270°
2026-04-27 14:22 13.19146 77.70853 2971 ft 18 kts 241°
2026-04-27 14:22 13.19133 77.70710 2964 ft 21 kts 270°
2026-04-27 14:23 13.19135 77.70521 2954 ft 28 kts 271°
2026-04-27 14:23 13.19137 77.70311 2945 ft 29 kts 271°
2026-04-27 14:23 13.19139 77.70101 2940 ft 28 kts 274°
2026-04-27 14:23 13.19142 77.69911 2946 ft 23 kts 270°
2026-04-27 14:24 13.19141 77.69767 2954 ft 16 kts 270°
2026-04-27 14:24 13.19140 77.69678 2961 ft 8 kts 270°
2026-04-27 14:24 13.19135 77.69629 2964 ft 8 kts 246°
2026-04-27 14:24 13.19065 77.69601 2965 ft 13 kts 184°
2026-04-27 14:25 13.18981 77.69614 2962 ft 12 kts 126°
2026-04-27 14:25 13.18968 77.69717 2956 ft 19 kts 91°
2026-04-27 14:25 13.18966 77.69962 2944 ft 65 kts 90°
2026-04-27 14:25 13.18962 77.70704 2962 ft 141 kts 90°
2026-04-27 14:26 13.18945 77.71915 3229 ft 186 kts 92°
2026-04-27 14:26 13.18920 77.73226 4139 ft 189 kts 92°
2026-04-27 14:26 13.18913 77.74545 4878 ft 190 kts 91°
2026-04-27 14:26 13.18893 77.75960 5296 ft 208 kts 92°
2026-04-27 14:27 13.18870 77.77444 5905 ft 216 kts 91°
2026-04-27 14:27 13.18858 77.79042 6367 ft 234 kts 91°
2026-04-27 14:27 13.18846 77.80769 6893 ft 252 kts 90°
2026-04-27 14:27 13.18833 77.82632 7426 ft 270 kts 90°
2026-04-27 14:28 13.18819 77.84582 8176 ft 278 kts 90°